SCP
0 0 0 0 0 0 0 0 0 0 0 0 0 0 0 0 0 0 0 0 0 0 0 0 0 0 0 0 0 0 0 0 2 3 1 2 2 0 0 0 0 0 0 0
0 0 0 0 0 0 0 0 0 0 0 0 0 0 0 0 0 0 0 0 0 0 0 0 0 0 0 0 0 0 0 0 0 0 3 4 4 1 -0 0 1 1 0 0
0 0 0 0 0 0 0 0 0 0 0 0 0 0 0 0 0 0 0 0 0 0 0 0 0 0 0 0 0 0 0 0 0 0 0 3 4 6 2 3 1 1 0 1
0 0 0 0 0 0 0 0 0 0 0 0 0 0 0 0 0 0 0 0 0 0 0 0 0 0 0 0 0 0 0 0 0 0 0 0 1 2 2 5 2 1 1 1
0 0 0 0 0 0 0 0 0 0 0 0 0 0 0 0 0 0 0 0 0 0 0 0 0 0 0 0 0 0 0 0 0 0 0 0 0 0 0 1 3 6 5 3
0 0 0 0 0 0 0 0 0 0 0 0 -0 0 0 0 0 0 0 0 0 0 0 0 0 0 0 0 0 0 0 0 0 0 0 0 0 0 0 0 1 1 3 4
0 0 0 0 0 0 0 0 0 0 0 0 0 0 0 0 0 0 0 0 0 0 0 0 0 0 0 0 0 0 0 0 0 0 0 0 0 0 1 1 1 1 1 2
0 0 0 0 0 0 0 0 0 0 0 0 0 0 0 0 0 0 0 0 0 0 0 0 0 0 0 0 0 0 0 0 0 0 0 0 0 0 0 1 1 1 1 2
0 0 0 0 0 0 0 0 0 0 0 0 0 0 0 0 0 0 0 0 0 0 0 0 0 0 0 0 0 0 0 0 0 0 0 0 0 0 0 2 3 2 4 2
0 0 0 0 0 0 0 0 0 0 0 0 0 0 0 0 0 0 0 0 0 0 0 0 0 0 0 0 0 0 0 0 0 0 0 0 0 0 0 0 1 2 3 2
0 0 0 0 0 0 0 0 0 0 0 0 0 0 0 0 0 0 0 0 0 0 0 0 0 0 0 0 0 0 0 0 0 0 0 0 0 0 0 0 1 1 2 1
0 0 0 0 0 0 0 0 0 0 0 0 0 0 0 0 0 0 0 0 0 0 0 0 0 0 0 0 0 0 0 0 0 0 0 0 0 0 0 1 1 0 1 0
0 0 0 0 0 0 0 0 0 0 0 0 0 0 0 0 -0 0 0 0 0 0 0 0 0 0 0 0 0 0 0 0 0 0 0 0 0 0 0 1 1 0 0 0
0 0 0 0 0 0 0 0 0 0 0 0 0 0 0 0 0 0 0 0 0 0 0 0 0 0 0 0 0 0 0 0 0 0 0 0 0 0 0 1 2 0 0 1
0 -0 -0 -0 -0 0 0 0 0 0 0 0 0 0 0 0 0 0 0 0 0 0 0 0 0 0 0 0 0 0 0 0 0 0 0 0 0 0 0 0 1 0 0 1
0 0 0 -0 -0 0 -0 -0 0 0 0 0 -0 -0 -0 -0 -0 0 0 0 0 0 0 0 0 0 0 0 0 0 0 0 0 0 0 0 0 0 0 0 1 0 0 1
0 0 0 -0 0 0 -0 0 -0 -0 0 0 0 -0 0 0 0 0 0 0 0 0 0 0 0 0 0 0 0 -0 0 0 0 0 0 0 -0 -0 -0 0 1 0 1 2
-0 0 0 0 0 0 0 0 0 0 0 0 0 0 0 0 0 0 0 0 0 0 0 0 0 0 0 0 -0 0 0 0 0 0 0 0 -0 0 0 1 1 1 2 3
-0 0 0 0 0 -0 -0 0 0 0 0 0 0 0 0 0 0 0 0 0 0 0 0 0 0 0 0 0 0 0 0 0 0 0 0 0 0 -0 0 1 1 2 2 4
0 0 0 0 0 0 0 0 0 0 0 0 0 0 0 0 -0 0 0 0 0 0 0 0 -0 0 -0 0 0 0 0 0 0 0 0 0 0 0 1 1 1 2 3 6
0 0 0 0 0 0 0 0 0 0 0 0 0 0 0 -0 0 -0 0 0 0 0 -0 -0 -0 -0 0 0 0 -0 0 -0 0 0 0 0 0 0 1 2 3 4 4 4
0 0 0 0 0 0 0 0 0 -0 -0 0 -0 -0 -0 -0 -0 0 0 -0 -0 -0 0 -0 0 0 0 0 0 0 0 -0 0 0 0 0 0 0 1 2 2 2 3 3
0 0 0 0 0 0 0 0 0 0 -0 -0 -0 0 -0 -0 -0 -0 -0 0 0 0 0 0 0 -0 -0 -0 0 0 0 -0 0 0 0 0 0 1 1 1 1 2 2 1
0 0 0 0 0 0 -0 -0 0 0 0 0 -0 0 0 0 0 -0 -0 -0 0 -0 0 -0 -0 -0 -0 -0 -0 0 0 0 0 0 0 0 1 1 1 1 1 1 1 2
0 0 0 0 0 -0 0 -0 -0 -0 -0 -0 0 0 0 0 -0 -0 -0 -0 -0 -0 -0 -0 -0 -0 -0 0 0 0 0 0 0 0 0 0 0 0 1 0 1 1 1 1
0 0 0 0 0 0 0 -0 -0 -0 0 0 0 0 0 0 -0 0 -0 0 0 -0 -0 -0 -0 -0 -0 0 0 0 0 0 0 0 0 0 0 0 0 0 0 0 0 0
Wind_Speed_500mb
14 20 26 26 23 27 16 19 21 12 2 22 29 30 26 32 35 32 35 34 36 37 21 16 17 19 19 21 23 18 9 16 36 58 62 51 49 86 81 80 94 92 85 84
18 28 26 12 17 21 24 25 24 13 16 17 29 36 32 34 34 41 41 37 32 23 19 16 17 18 19 24 26 25 19 14 19 25 57 48 52 69 73 60 79 91 93 96
24 15 6 20 21 24 26 26 19 20 12 27 29 41 41 16 16 19 19 15 17 14 8 4 10 12 16 22 27 29 30 27 26 26 35 57 65 67 57 43 49 72 82 86
19 4 20 24 22 20 26 21 16 18 20 17 5 13 15 20 14 19 21 17 7 2 11 8 9 11 17 19 23 28 30 31 31 30 27 31 37 48 60 74 67 66 55 60
7 11 22 25 24 13 24 4 18 19 24 30 30 18 24 10 22 27 12 11 6 6 5 2 6 12 16 21 24 27 33 35 35 33 38 36 38 40 44 48 65 57 55 59
34 18 17 24 14 21 5 19 23 23 25 25 37 21 19 18 22 23 14 7 7 11 6 8 12 16 20 18 19 28 37 39 37 38 38 44 47 47 45 47 53 48 45 57
39 38 31 20 25 17 25 23 22 22 19 18 13 12 26 9 9 5 9 12 13 8 14 16 17 20 22 22 25 27 28 39 43 45 47 47 50 54 56 55 44 51 52 54
31 32 26 25 33 27 32 31 20 18 19 18 24 12 6 3 16 9 13 6 8 7 15 21 23 23 20 21 25 30 34 37 44 48 51 53 53 54 53 56 56 54 54 59
20 29 7 17 15 21 15 23 12 20 30 24 28 21 17 25 18 15 14 14 9 11 20 26 28 27 23 22 20 21 30 39 39 42 52 55 55 59 62 63 65 60 63 71
4 19 15 16 20 18 18 11 14 16 22 35 24 23 15 24 18 10 10 11 18 26 29 30 30 27 27 29 33 32 29 30 36 41 43 46 53 57 61 65 71 69 63 64
11 10 8 15 17 26 14 25 25 17 21 20 23 13 15 4 8 7 8 14 33 40 39 39 38 34 31 32 34 38 40 38 35 35 40 45 53 56 58 64 71 73 70 69
14 9 17 28 16 23 31 34 36 20 23 20 26 33 27 14 10 10 24 35 37 33 36 38 38 38 39 41 42 41 42 46 43 41 42 45 48 53 53 55 67 71 64 59
9 13 16 12 20 18 23 34 32 35 28 40 29 12 13 16 20 35 42 38 34 34 34 34 37 39 42 46 45 46 47 49 51 48 49 49 50 52 57 52 60 61 56 54
6 20 26 26 23 11 14 18 19 28 26 33 43 43 42 40 40 38 40 34 35 30 33 34 34 38 42 40 41 46 49 50 52 52 54 54 54 56 57 55 57 57 55 51
14 31 35 39 42 41 42 46 42 41 40 42 43 51 43 43 44 43 47 41 40 38 37 38 42 46 45 45 47 51 57 56 55 57 57 59 55 58 60 60 58 55 52 54
15 27 30 35 32 31 38 44 47 48 48 54 53 61 47 55 48 32 33 39 45 47 51 53 56 54 51 53 55 58 63 64 59 59 62 59 57 58 59 61 55 53 55 57
11 8 9 22 19 19 27 41 48 50 49 45 50 49 30 31 31 30 37 45 51 57 62 66 63 62 65 65 65 71 72 65 61 60 60 57 55 56 60 54 52 56 62 63
31 21 12 17 17 21 17 8 16 21 24 26 32 37 36 32 34 35 45 60 65 61 63 66 71 80 81 76 71 69 67 64 61 58 57 54 52 57 60 50 54 59 61 65
29 18 9 8 18 34 38 8 11 20 29 32 38 28 29 33 51 56 59 52 59 66 74 80 84 87 76 69 69 67 66 62 59 57 53 50 50 59 44 51 60 64 69 69
7 12 9 9 10 9 11 3 12 16 32 11 8 22 35 52 34 34 55 60 73 82 82 81 77 73 76 73 63 62 61 59 56 51 49 49 47 53 35 53 63 71 71 74
10 6 23 22 15 17 14 3 4 9 14 31 49 58 59 36 44 76 74 77 86 82 79 75 76 75 75 62 59 65 58 58 51 47 47 49 46 43 40 57 67 72 78 76
6 6 10 14 10 14 9 6 17 37 60 61 64 67 66 75 78 78 81 86 85 74 77 72 74 72 71 58 58 58 56 55 52 47 48 44 46 33 47 64 73 76 76 78
7 7 8 9 11 36 53 44 47 54 60 64 61 65 71 74 82 84 84 88 77 75 72 76 70 67 64 55 51 53 51 49 44 47 46 39 44 45 60 73 73 73 78 82
12 17 10 19 12 26 51 54 54 59 64 74 81 75 72 86 88 82 87 75 68 71 69 68 65 65 59 47 48 51 41 41 46 47 33 24 26 56 67 62 67 81 84 86
12 14 10 24 38 46 37 48 62 66 66 79 85 85 82 71 72 70 70 70 68 69 68 62 62 68 54 46 45 44 44 42 41 38 29 39 54 61 62 65 64 71 82 79
14 8 6 11 51 42 45 58 62 71 82 82 77 77 63 63 64 64 71 70 67 66 62 63 67 57 53 40 42 47 42 37 38 35 37 60 67 70 77 81 78 66 65 59
Wind_Direction_500mb
205 253 231 239 233 276 273 264 260 243 212 264 256 254 253 254 248 240 249 249 250 247 247 249 288 296 276 276 272 282 287 215 220 224 246 237 248 248 253 250 249 248 248 248
236 239 257 261 252 244 238 244 242 249 257 268 272 269 272 264 254 248 242 234 244 250 260 260 286 300 293 279 279 277 275 261 236 225 233 236 249 252 268 251 251 245 244 247
266 299 261 231 219 233 234 248 254 262 304 272 268 274 247 225 225 213 216 226 235 241 243 245 297 328 309 298 280 282 275 267 270 259 237 224 237 230 240 241 260 249 240 243
271 270 225 230 241 238 258 209 260 266 265 274 115 287 189 210 187 184 178 181 175 207 218 257 282 314 333 322 295 283 287 282 271 265 263 231 229 237 242 251 260 251 243 240
258 222 214 230 247 243 272 205 242 265 270 282 262 244 250 197 197 176 156 148 130 136 138 241 285 306 318 326 323 312 293 287 289 277 264 260 254 246 245 231 232 246 247 249
259 244 265 262 274 243 228 228 231 249 258 254 244 234 233 193 212 179 173 243 272 216 238 301 296 306 310 314 317 312 299 293 287 279 271 263 258 254 247 244 243 245 247 247
232 234 222 242 229 212 221 239 255 232 208 246 100 249 263 164 174 216 266 272 271 254 267 292 283 289 295 303 314 319 310 293 286 280 277 272 266 263 263 261 258 250 247 248
272 265 207 201 226 255 225 251 262 281 270 272 163 244 162 196 195 248 250 228 179 293 309 310 310 300 285 287 304 313 315 309 293 286 278 275 275 270 263 262 260 258 247 245
287 262 159 233 211 212 228 236 294 288 284 281 262 240 227 218 222 203 191 200 233 314 323 320 315 309 299 290 287 310 317 316 305 297 288 279 273 270 266 259 258 262 261 253
215 272 245 253 232 190 243 346 220 210 259 257 246 232 241 166 179 196 220 275 310 292 294 302 303 301 296 294 296 298 302 306 303 304 300 290 278 270 267 263 256 255 260 257
299 254 253 268 242 241 204 237 250 282 269 270 278 273 90 149 215 265 276 284 298 293 287 290 293 292 289 289 291 294 299 301 297 284 286 293 285 278 271 263 259 255 259 257
213 220 253 244 268 222 226 242 255 240 241 233 260 268 288 226 209 202 280 296 297 290 284 287 286 287 287 289 286 285 291 295 298 294 286 285 288 279 274 266 256 251 251 249
181 222 273 228 221 221 244 239 242 256 266 261 262 228 150 172 232 283 298 301 290 284 283 281 282 286 290 291 285 286 288 287 289 294 289 283 283 284 275 267 258 250 244 238
344 272 265 274 291 231 242 249 240 243 245 250 246 260 274 277 289 295 288 298 294 292 290 290 288 288 291 293 289 288 289 292 287 284 287 282 280 282 280 267 260 248 236 225
247 267 271 270 273 272 268 271 260 244 244 250 269 273 279 286 292 295 291 290 286 285 285 288 293 293 287 285 286 288 287 288 290 281 282 278 279 279 279 271 256 244 229 216
242 259 266 275 272 272 274 265 258 255 254 256 261 269 276 277 276 273 282 281 282 281 282 289 294 296 290 288 288 285 284 285 286 278 277 276 278 278 275 266 252 234 220 208
284 266 318 277 306 301 268 255 248 248 249 253 258 267 285 291 290 302 305 294 290 291 289 289 290 293 292 287 285 283 283 282 277 274 273 274 276 279 271 252 241 223 211 199
251 257 272 276 295 260 246 320 285 292 278 280 262 272 272 287 312 305 293 290 290 289 291 293 290 290 290 285 282 278 276 274 273 269 270 270 276 273 266 240 226 212 203 193
244 241 243 249 248 275 295 335 320 309 288 297 294 298 311 300 285 284 290 293 292 290 290 289 291 289 286 282 279 276 273 269 267 265 268 267 274 269 262 239 211 204 194 183
124 196 228 248 260 274 1 24 340 324 280 46 320 289 295 305 291 288 297 291 291 294 293 289 288 285 284 279 276 271 267 264 260 261 261 268 270 262 251 225 204 194 183 175
132 182 226 246 261 268 288 172 233 258 326 319 306 303 298 287 276 290 290 295 298 298 291 291 286 281 280 276 272 270 266 262 261 261 261 270 263 244 242 202 187 174 174 171
219 230 207 231 251 275 40 230 276 313 304 303 300 297 294 292 291 292 295 299 299 290 291 288 286 283 283 276 269 266 263 262 262 262 265 266 258 240 205 191 181 179 176 171
280 227 290 262 278 305 308 299 299 299 294 299 301 301 297 296 296 295 299 301 295 292 289 289 286 283 284 279 266 261 260 263 266 267 268 261 233 207 190 190 186 181 178 172
302 308 264 310 270 303 311 309 312 312 310 307 304 304 302 300 294 292 295 292 291 292 289 287 285 283 283 275 268 263 260 263 268 268 264 234 189 183 182 189 186 176 171 162
297 317 290 280 290 324 306 301 305 305 309 311 304 299 294 293 294 292 292 292 289 287 287 286 283 289 283 277 268 261 259 259 259 268 243 189 192 172 169 164 161 166 163 164
24 10 293 291 302 289 284 307 314 319 314 309 305 302 295 294 292 293 289 289 289 288 289 285 286 285 285 280 270 263 264 254 251 231 194 174 164 166 162 157 148 150 160 158
Wind_Speed_850mb
14 20 26 26 23 27 16 19 21 12 2 22 29 30 26 32 35 32 35 34 36 37 21 16 17 19 19 21 23 18 9 16 36 58 62 51 49 86 81 80 94 92 85 84
18 28 26 12 17 21 24 25 24 13 16 17 29 36 32 34 34 41 41 37 32 23 19 16 17 18 19 24 26 25 19 14 19 25 57 48 52 69 73 60 79 91 93 96
24 15 6 20 21 24 26 26 19 20 12 27 29 41 41 16 16 19 19 15 17 14 8 4 10 12 16 22 27 29 30 27 26 26 35 57 65 67 57 43 49 72 82 86
19 4 20 24 22 20 26 21 16 18 20 17 5 13 15 20 14 19 21 17 7 2 11 8 9 11 17 19 23 28 30 31 31 30 27 31 37 48 60 74 67 66 55 60
7 11 22 25 24 13 24 4 18 19 24 30 30 18 24 10 22 27 12 11 6 6 5 2 6 12 16 21 24 27 33 35 35 33 38 36 38 40 44 48 65 57 55 59
34 18 17 24 14 21 5 19 23 23 25 25 37 21 19 18 22 23 14 7 7 11 6 8 12 16 20 18 19 28 37 39 37 38 38 44 47 47 45 47 53 48 45 57
39 38 31 20 25 17 25 23 22 22 19 18 13 12 26 9 9 5 9 12 13 8 14 16 17 20 22 22 25 27 28 39 43 45 47 47 50 54 56 55 44 51 52 54
31 32 26 25 33 27 32 31 20 18 19 18 24 12 6 3 16 9 13 6 8 7 15 21 23 23 20 21 25 30 34 37 44 48 51 53 53 54 53 56 56 54 54 59
20 29 7 17 15 21 15 23 12 20 30 24 28 21 17 25 18 15 14 14 9 11 20 26 28 27 23 22 20 21 30 39 39 42 52 55 55 59 62 63 65 60 63 71
4 19 15 16 20 18 18 11 14 16 22 35 24 23 15 24 18 10 10 11 18 26 29 30 30 27 27 29 33 32 29 30 36 41 43 46 53 57 61 65 71 69 63 64
11 10 8 15 17 26 14 25 25 17 21 20 23 13 15 4 8 7 8 14 33 40 39 39 38 34 31 32 34 38 40 38 35 35 40 45 53 56 58 64 71 73 70 69
14 9 17 28 16 23 31 34 36 20 23 20 26 33 27 14 10 10 24 35 37 33 36 38 38 38 39 41 42 41 42 46 43 41 42 45 48 53 53 55 67 71 64 59
9 13 16 12 20 18 23 34 32 35 28 40 29 12 13 16 20 35 42 38 34 34 34 34 37 39 42 46 45 46 47 49 51 48 49 49 50 52 57 52 60 61 56 54
6 20 26 26 23 11 14 18 19 28 26 33 43 43 42 40 40 38 40 34 35 30 33 34 34 38 42 40 41 46 49 50 52 52 54 54 54 56 57 55 57 57 55 51
14 31 35 39 42 41 42 46 42 41 40 42 43 51 43 43 44 43 47 41 40 38 37 38 42 46 45 45 47 51 57 56 55 57 57 59 55 58 60 60 58 55 52 54
15 27 30 35 32 31 38 44 47 48 48 54 53 61 47 55 48 32 33 39 45 47 51 53 56 54 51 53 55 58 63 64 59 59 62 59 57 58 59 61 55 53 55 57
11 8 9 22 19 19 27 41 48 50 49 45 50 49 30 31 31 30 37 45 51 57 62 66 63 62 65 65 65 71 72 65 61 60 60 57 55 56 60 54 52 56 62 63
31 21 12 17 17 21 17 8 16 21 24 26 32 37 36 32 34 35 45 60 65 61 63 66 71 80 81 76 71 69 67 64 61 58 57 54 52 57 60 50 54 59 61 65
29 18 9 8 18 34 38 8 11 20 29 32 38 28 29 33 51 56 59 52 59 66 74 80 84 87 76 69 69 67 66 62 59 57 53 50 50 59 44 51 60 64 69 69
7 12 9 9 10 9 11 3 12 16 32 11 8 22 35 52 34 34 55 60 73 82 82 81 77 73 76 73 63 62 61 59 56 51 49 49 47 53 35 53 63 71 71 74
10 6 23 22 15 17 14 3 4 9 14 31 49 58 59 36 44 76 74 77 86 82 79 75 76 75 75 62 59 65 58 58 51 47 47 49 46 43 40 57 67 72 78 76
6 6 10 14 10 14 9 6 17 37 60 61 64 67 66 75 78 78 81 86 85 74 77 72 74 72 71 58 58 58 56 55 52 47 48 44 46 33 47 64 73 76 76 78
7 7 8 9 11 36 53 44 47 54 60 64 61 65 71 74 82 84 84 88 77 75 72 76 70 67 64 55 51 53 51 49 44 47 46 39 44 45 60 73 73 73 78 82
12 17 10 19 12 26 51 54 54 59 64 74 81 75 72 86 88 82 87 75 68 71 69 68 65 65 59 47 48 51 41 41 46 47 33 24 26 56 67 62 67 81 84 86
12 14 10 24 38 46 37 48 62 66 66 79 85 85 82 71 72 70 70 70 68 69 68 62 62 68 54 46 45 44 44 42 41 38 29 39 54 61 62 65 64 71 82 79
14 8 6 11 51 42 45 58 62 71 82 82 77 77 63 63 64 64 71 70 67 66 62 63 67 57 53 40 42 47 42 37 38 35 37 60 67 70 77 81 78 66 65 59
Wind_Direction_850mb
205 253 231 239 233 276 273 264 260 243 212 264 256 254 253 254 248 240 249 249 250 247 247 249 288 296 276 276 272 282 287 215 220 224 246 237 248 248 253 250 249 248 248 248
236 239 257 261 252 244 238 244 242 249 257 268 272 269 272 264 254 248 242 234 244 250 260 260 286 300 293 279 279 277 275 261 236 225 233 236 249 252 268 251 251 245 244 247
266 299 261 231 219 233 234 248 254 262 304 272 268 274 247 225 225 213 216 226 235 241 243 245 297 328 309 298 280 282 275 267 270 259 237 224 237 230 240 241 260 249 240 243
271 270 225 230 241 238 258 209 260 266 265 274 115 287 189 210 187 184 178 181 175 207 218 257 282 314 333 322 295 283 287 282 271 265 263 231 229 237 242 251 260 251 243 240
258 222 214 230 247 243 272 205 242 265 270 282 262 244 250 197 197 176 156 148 130 136 138 241 285 306 318 326 323 312 293 287 289 277 264 260 254 246 245 231 232 246 247 249
259 244 265 262 274 243 228 228 231 249 258 254 244 234 233 193 212 179 173 243 272 216 238 301 296 306 310 314 317 312 299 293 287 279 271 263 258 254 247 244 243 245 247 247
232 234 222 242 229 212 221 239 255 232 208 246 100 249 263 164 174 216 266 272 271 254 267 292 283 289 295 303 314 319 310 293 286 280 277 272 266 263 263 261 258 250 247 248
272 265 207 201 226 255 225 251 262 281 270 272 163 244 162 196 195 248 250 228 179 293 309 310 310 300 285 287 304 313 315 309 293 286 278 275 275 270 263 262 260 258 247 245
287 262 159 233 211 212 228 236 294 288 284 281 262 240 227 218 222 203 191 200 233 314 323 320 315 309 299 290 287 310 317 316 305 297 288 279 273 270 266 259 258 262 261 253
215 272 245 253 232 190 243 346 220 210 259 257 246 232 241 166 179 196 220 275 310 292 294 302 303 301 296 294 296 298 302 306 303 304 300 290 278 270 267 263 256 255 260 257
299 254 253 268 242 241 204 237 250 282 269 270 278 273 90 149 215 265 276 284 298 293 287 290 293 292 289 289 291 294 299 301 297 284 286 293 285 278 271 263 259 255 259 257
213 220 253 244 268 222 226 242 255 240 241 233 260 268 288 226 209 202 280 296 297 290 284 287 286 287 287 289 286 285 291 295 298 294 286 285 288 279 274 266 256 251 251 249
181 222 273 228 221 221 244 239 242 256 266 261 262 228 150 172 232 283 298 301 290 284 283 281 282 286 290 291 285 286 288 287 289 294 289 283 283 284 275 267 258 250 244 238
344 272 265 274 291 231 242 249 240 243 245 250 246 260 274 277 289 295 288 298 294 292 290 290 288 288 291 293 289 288 289 292 287 284 287 282 280 282 280 267 260 248 236 225
247 267 271 270 273 272 268 271 260 244 244 250 269 273 279 286 292 295 291 290 286 285 285 288 293 293 287 285 286 288 287 288 290 281 282 278 279 279 279 271 256 244 229 216
242 259 266 275 272 272 274 265 258 255 254 256 261 269 276 277 276 273 282 281 282 281 282 289 294 296 290 288 288 285 284 285 286 278 277 276 278 278 275 266 252 234 220 208
284 266 318 277 306 301 268 255 248 248 249 253 258 267 285 291 290 302 305 294 290 291 289 289 290 293 292 287 285 283 283 282 277 274 273 274 276 279 271 252 241 223 211 199
251 257 272 276 295 260 246 320 285 292 278 280 262 272 272 287 312 305 293 290 290 289 291 293 290 290 290 285 282 278 276 274 273 269 270 270 276 273 266 240 226 212 203 193
244 241 243 249 248 275 295 335 320 309 288 297 294 298 311 300 285 284 290 293 292 290 290 289 291 289 286 282 279 276 273 269 267 265 268 267 274 269 262 239 211 204 194 183
124 196 228 248 260 274 1 24 340 324 280 46 320 289 295 305 291 288 297 291 291 294 293 289 288 285 284 279 276 271 267 264 260 261 261 268 270 262 251 225 204 194 183 175
132 182 226 246 261 268 288 172 233 258 326 319 306 303 298 287 276 290 290 295 298 298 291 291 286 281 280 276 272 270 266 262 261 261 261 270 263 244 242 202 187 174 174 171
219 230 207 231 251 275 40 230 276 313 304 303 300 297 294 292 291 292 295 299 299 290 291 288 286 283 283 276 269 266 263 262 262 262 265 266 258 240 205 191 181 179 176 171
280 227 290 262 278 305 308 299 299 299 294 299 301 301 297 296 296 295 299 301 295 292 289 289 286 283 284 279 266 261 260 263 266 267 268 261 233 207 190 190 186 181 178 172
302 308 264 310 270 303 311 309 312 312 310 307 304 304 302 300 294 292 295 292 291 292 289 287 285 283 283 275 268 263 260 263 268 268 264 234 189 183 182 189 186 176 171 162
297 317 290 280 290 324 306 301 305 305 309 311 304 299 294 293 294 292 292 292 289 287 287 286 283 289 283 277 268 261 259 259 259 268 243 189 192 172 169 164 161 166 163 164
24 10 293 291 302 289 284 307 314 319 314 309 305 302 295 294 292 293 289 289 289 288 289 285 286 285 285 280 270 263 264 254 251 231 194 174 164 166 162 157 148 150 160 158